SDA132 NZWN-NZNR

Flight info

Callsign SDA132
Flight time 1h 0m
Altitude 9000
Route KAMET H467 BINIT Y737 PM H429 SELDU H297 NR
Aircraft C208/L-SDFGR/C

Departure

Time 2026-04-26 14:07
Airport Wellington International Airport (NZWN)

Arrival

Time 2026-04-26 15:08
Airport Hawke's Bay Airport (NZNR)
Time Latitude Longitude Altitude Speed Heading
2026-04-26 12:25 -41.33140 174.81114 25 ft 0 kts 349°
2026-04-26 12:40 -41.33141 174.81114 25 ft 0 kts 349°
2026-04-26 13:50 -41.33140 174.81114 25 ft 0 kts 349°
2026-04-26 13:50 -41.33137 174.81128 25 ft 2 kts 136°
2026-04-26 13:50 -41.33174 174.81129 25 ft 9 kts 183°
2026-04-26 13:50 -41.33240 174.81094 27 ft 7 kts 219°
2026-04-26 13:51 -41.33248 174.81037 25 ft 9 kts 271°
2026-04-26 13:51 -41.33242 174.80976 25 ft 4 kts 281°
2026-04-26 13:51 -41.33238 174.80931 25 ft 8 kts 271°
2026-04-26 13:51 -41.33236 174.80869 25 ft 6 kts 273°
2026-04-26 13:52 -41.33236 174.80802 28 ft 10 kts 240°
2026-04-26 13:52 -41.33288 174.80779 26 ft 6 kts 183°
2026-04-26 13:52 -41.33321 174.80777 25 ft 7 kts 182°
2026-04-26 13:52 -41.33384 174.80773 27 ft 8 kts 183°
2026-04-26 13:53 -41.33445 174.80769 26 ft 10 kts 182°
2026-04-26 13:53 -41.33496 174.80766 25 ft 7 kts 182°
2026-04-26 13:53 -41.33524 174.80761 25 ft 2 kts 202°
2026-04-26 13:53 -41.33531 174.80757 26 ft 0 kts 206°
2026-04-26 14:05 -41.33534 174.80755 25 ft 3 kts 207°
2026-04-26 14:06 -41.33568 174.80702 26 ft 12 kts 249°
2026-04-26 14:06 -41.33526 174.80636 25 ft 11 kts
2026-04-26 14:06 -41.33336 174.80648 25 ft 50 kts
2026-04-26 14:06 -41.32896 174.80653 105 ft 69 kts 357°
2026-04-26 14:07 -41.32381 174.80662 263 ft 72 kts
2026-04-26 14:07 -41.31880 174.80623 431 ft 76 kts 352°
2026-04-26 14:07 -41.31531 174.80600 593 ft 72 kts
2026-04-26 14:07 -41.30868 174.80695 807 ft 77 kts
2026-04-26 14:08 -41.30496 174.80750 912 ft 82 kts
2026-04-26 14:08 -41.29872 174.80821 1022 ft 100 kts
2026-04-26 14:08 -41.29108 174.80895 1138 ft 119 kts
2026-04-26 14:08 -41.28216 174.80969 1267 ft 135 kts
2026-04-26 14:09 -41.27241 174.80926 1392 ft 146 kts 346°
2026-04-26 14:09 -41.26236 174.80539 1504 ft 152 kts 345°
2026-04-26 14:09 -41.25226 174.80189 1722 ft 148 kts 346°
2026-04-26 14:09 -41.24248 174.79849 1996 ft 142 kts 346°
2026-04-26 14:10 -41.23315 174.79524 2268 ft 136 kts 346°
2026-04-26 14:10 -41.22421 174.79214 2532 ft 130 kts 346°
2026-04-26 14:10 -41.21564 174.78914 2800 ft 125 kts 346°
2026-04-26 14:10 -41.20729 174.78624 3035 ft 123 kts 345°
2026-04-26 14:11 -41.19062 174.78047 3432 ft 124 kts 345°
2026-04-26 14:11 -41.18232 174.77758 3630 ft 123 kts 345°
2026-04-26 14:11 -41.17407 174.77473 3824 ft 123 kts 345°
2026-04-26 14:12 -41.16574 174.77238 4018 ft 124 kts 359°
2026-04-26 14:12 -41.15752 174.77619 4227 ft 127 kts 28°
2026-04-26 14:12 -41.14975 174.78181 4431 ft 129 kts 25°
2026-04-26 14:12 -41.14183 174.78735 4643 ft 129 kts 25°
2026-04-26 14:13 -41.12576 174.79872 5060 ft 132 kts 24°
2026-04-26 14:13 -41.11768 174.80438 5252 ft 132 kts 25°
2026-04-26 14:13 -41.10967 174.81007 5450 ft 131 kts 24°
2026-04-26 14:14 -41.10167 174.81572 5648 ft 128 kts 25°
2026-04-26 14:14 -41.09393 174.82118 5833 ft 125 kts 24°
2026-04-26 14:14 -41.08638 174.82650 6031 ft 123 kts 24°
2026-04-26 14:14 -41.07883 174.83183 6226 ft 121 kts 24°
2026-04-26 14:15 -41.07153 174.83696 6422 ft 119 kts 24°
2026-04-26 14:15 -41.06419 174.84215 6618 ft 118 kts 24°
2026-04-26 14:15 -41.05694 174.84725 6768 ft 120 kts 24°
2026-04-26 14:15 -41.04944 174.85252 6921 ft 126 kts 24°
2026-04-26 14:16 -41.04148 174.85815 7067 ft 130 kts 24°
2026-04-26 14:16 -41.03352 174.86376 7222 ft 130 kts 24°
2026-04-26 14:16 -41.02556 174.86936 7371 ft 130 kts 24°
2026-04-26 14:16 -41.01745 174.87507 7517 ft 131 kts 24°
2026-04-26 14:17 -41.00944 174.88071 7666 ft 131 kts 24°
2026-04-26 14:17 -41.00138 174.88638 7810 ft 132 kts 24°
2026-04-26 14:17 -40.99331 174.89205 7959 ft 132 kts 23°
2026-04-26 14:17 -40.98524 174.89773 8111 ft 132 kts 23°
2026-04-26 14:18 -40.97704 174.90349 8260 ft 133 kts 23°
2026-04-26 14:18 -40.96891 174.90921 8415 ft 133 kts 23°
2026-04-26 14:18 -40.96074 174.91494 8559 ft 133 kts 23°
2026-04-26 14:18 -40.95255 174.92069 8714 ft 134 kts 22°
2026-04-26 14:19 -40.94435 174.92646 8870 ft 135 kts 22°
2026-04-26 14:19 -40.93605 174.93227 9008 ft 137 kts 22°
2026-04-26 14:19 -40.92723 174.93846 9015 ft 147 kts 23°
2026-04-26 14:19 -40.91806 174.94490 9020 ft 153 kts 23°
2026-04-26 14:20 -40.90854 174.95159 9020 ft 158 kts 24°
2026-04-26 14:20 -40.89866 174.95852 9017 ft 161 kts 24°
2026-04-26 14:20 -40.88881 174.96542 9016 ft 163 kts 24°
2026-04-26 14:20 -40.87863 174.97256 9018 ft 165 kts 24°
2026-04-26 14:21 -40.86855 174.97963 9017 ft 166 kts 24°
2026-04-26 14:21 -40.85837 174.98675 9013 ft 167 kts 24°
2026-04-26 14:21 -40.84804 174.99398 9017 ft 167 kts 24°
2026-04-26 14:21 -40.83782 175.00113 9019 ft 167 kts 24°
2026-04-26 14:22 -40.82757 175.00830 9016 ft 168 kts 24°
2026-04-26 14:22 -40.81718 175.01557 9018 ft 168 kts 24°
2026-04-26 14:22 -40.80691 175.02274 9012 ft 168 kts 24°
2026-04-26 14:22 -40.79666 175.02990 9014 ft 168 kts 24°
2026-04-26 14:23 -40.78626 175.03716 9014 ft 168 kts 24°
2026-04-26 14:23 -40.77601 175.04432 9014 ft 168 kts 24°
2026-04-26 14:23 -40.76570 175.05151 9014 ft 168 kts 24°
2026-04-26 14:23 -40.75527 175.05879 9012 ft 168 kts 24°
2026-04-26 14:24 -40.74496 175.06597 9012 ft 168 kts 24°
2026-04-26 14:24 -40.73464 175.07316 9012 ft 168 kts 24°
2026-04-26 14:24 -40.72432 175.08036 9011 ft 168 kts 24°
2026-04-26 14:24 -40.71386 175.08764 9014 ft 169 kts 24°
2026-04-26 14:25 -40.70353 175.09484 9015 ft 169 kts 24°
2026-04-26 14:25 -40.69321 175.10202 9016 ft 169 kts 24°
2026-04-26 14:25 -40.68285 175.10923 9011 ft 169 kts 24°
2026-04-26 14:25 -40.67238 175.11651 9011 ft 169 kts 24°
2026-04-26 14:26 -40.66183 175.12310 9012 ft 168 kts 19°
2026-04-26 14:26 -40.65109 175.12922 9011 ft 168 kts 20°
2026-04-26 14:26 -40.64041 175.13545 9012 ft 168 kts 20°
2026-04-26 14:26 -40.62960 175.14172 9010 ft 169 kts 20°
2026-04-26 14:27 -40.61889 175.14791 9011 ft 169 kts 20°
2026-04-26 14:27 -40.60818 175.15409 9010 ft 169 kts 20°
2026-04-26 14:27 -40.59862 175.16295 8998 ft 173 kts 48°
2026-04-26 14:27 -40.59138 175.17575 9002 ft 173 kts 51°
2026-04-26 14:28 -40.58406 175.18819 9001 ft 173 kts 50°
2026-04-26 14:28 -40.57675 175.20067 9002 ft 173 kts 51°
2026-04-26 14:28 -40.56947 175.21316 9006 ft 173 kts 50°
2026-04-26 14:28 -40.56216 175.22570 9004 ft 173 kts 50°
2026-04-26 14:29 -40.55484 175.23824 9008 ft 173 kts 51°
2026-04-26 14:29 -40.54752 175.25078 9008 ft 173 kts 51°
2026-04-26 14:29 -40.54022 175.26329 9007 ft 173 kts 51°
2026-04-26 14:29 -40.53280 175.27599 9006 ft 173 kts 51°
2026-04-26 14:30 -40.52550 175.28847 9003 ft 173 kts 51°
2026-04-26 14:30 -40.51821 175.30094 9008 ft 173 kts 51°
2026-04-26 14:30 -40.51089 175.31346 9007 ft 173 kts 51°
2026-04-26 14:30 -40.50347 175.32614 9008 ft 173 kts 51°
2026-04-26 14:31 -40.49615 175.33864 9004 ft 173 kts 51°
2026-04-26 14:31 -40.48882 175.35115 9005 ft 173 kts 51°
2026-04-26 14:31 -40.48151 175.36363 9003 ft 173 kts 51°
2026-04-26 14:31 -40.47410 175.37627 9007 ft 173 kts 51°
2026-04-26 14:32 -40.46677 175.38878 9005 ft 173 kts 51°
2026-04-26 14:32 -40.45944 175.40126 9004 ft 173 kts 51°
2026-04-26 14:32 -40.45212 175.41374 9004 ft 173 kts 51°
2026-04-26 14:32 -40.44470 175.42638 9001 ft 173 kts 51°
2026-04-26 14:33 -40.43736 175.43888 9003 ft 173 kts 51°
2026-04-26 14:33 -40.43003 175.45135 9003 ft 173 kts 51°
2026-04-26 14:33 -40.42262 175.46396 9002 ft 173 kts 51°
2026-04-26 14:33 -40.41535 175.47632 9005 ft 173 kts 51°
2026-04-26 14:34 -40.40795 175.48891 9002 ft 173 kts 51°
2026-04-26 14:34 -40.40061 175.50138 9001 ft 173 kts 51°
2026-04-26 14:34 -40.39326 175.51386 9000 ft 173 kts 51°
2026-04-26 14:34 -40.38584 175.52646 9001 ft 173 kts 51°
2026-04-26 14:35 -40.37851 175.53891 9001 ft 173 kts 51°
2026-04-26 14:35 -40.37116 175.55137 9000 ft 173 kts 51°
2026-04-26 14:35 -40.36370 175.56403 9002 ft 173 kts 51°
2026-04-26 14:35 -40.35637 175.57645 8999 ft 173 kts 51°
2026-04-26 14:36 -40.34899 175.58895 9003 ft 173 kts 51°
2026-04-26 14:36 -40.34165 175.60138 9000 ft 173 kts 51°
2026-04-26 14:36 -40.33427 175.61389 9003 ft 174 kts 51°
2026-04-26 14:36 -40.32692 175.62632 9001 ft 174 kts 51°
2026-04-26 14:37 -40.31926 175.63870 9000 ft 173 kts 43°
2026-04-26 14:37 -40.30984 175.64833 9005 ft 173 kts 35°
2026-04-26 14:37 -40.30040 175.65792 9004 ft 173 kts 37°
2026-04-26 14:37 -40.29099 175.66761 9002 ft 173 kts 37°
2026-04-26 14:38 -40.28144 175.67741 9007 ft 173 kts 36°
2026-04-26 14:38 -40.27201 175.68705 9007 ft 173 kts 36°
2026-04-26 14:38 -40.26254 175.69673 9008 ft 173 kts 36°
2026-04-26 14:38 -40.25620 175.70322 9008 ft 173 kts 36°
2026-04-26 14:39 -40.24351 175.71619 9008 ft 173 kts 36°
2026-04-26 14:39 -40.23405 175.72586 9013 ft 173 kts 36°
2026-04-26 14:39 -40.22455 175.73555 9014 ft 173 kts 36°
2026-04-26 14:39 -40.21496 175.74535 9015 ft 173 kts 37°
2026-04-26 14:40 -40.20555 175.75495 9013 ft 173 kts 37°
2026-04-26 14:40 -40.19604 175.76465 9014 ft 173 kts 36°
2026-04-26 14:40 -40.18655 175.77434 9016 ft 173 kts 37°
2026-04-26 14:40 -40.17706 175.78401 9016 ft 173 kts 37°
2026-04-26 14:41 -40.16749 175.79375 9016 ft 173 kts 36°
2026-04-26 14:41 -40.15801 175.80341 9017 ft 173 kts 37°
2026-04-26 14:41 -40.14853 175.81307 9020 ft 173 kts 36°
2026-04-26 14:41 -40.13904 175.82271 9022 ft 173 kts 36°
2026-04-26 14:42 -40.12953 175.83239 9024 ft 174 kts 37°
2026-04-26 14:42 -40.11997 175.84213 9025 ft 173 kts 37°
2026-04-26 14:42 -40.11052 175.85175 9025 ft 173 kts 36°
2026-04-26 14:42 -40.10106 175.86138 9030 ft 174 kts 37°
2026-04-26 14:43 -40.09136 175.87119 9028 ft 175 kts 36°
2026-04-26 14:43 -40.08178 175.88090 9027 ft 176 kts 37°
2026-04-26 14:43 -40.07214 175.89073 9035 ft 178 kts 37°
2026-04-26 14:43 -40.06238 175.90062 9032 ft 178 kts 36°
2026-04-26 14:44 -40.05261 175.91053 9036 ft 178 kts 37°
2026-04-26 14:44 -40.04287 175.92052 9035 ft 178 kts 36°
2026-04-26 14:44 -40.03301 175.93044 9037 ft 178 kts 36°
2026-04-26 14:44 -40.02328 175.94025 9032 ft 177 kts 37°
2026-04-26 14:45 -40.01360 175.95008 9035 ft 177 kts 37°
2026-04-26 14:45 -40.00708 175.95669 9040 ft 177 kts 36°
2026-04-26 14:45 -39.99408 175.96983 9036 ft 178 kts 36°
2026-04-26 14:45 -39.98434 175.97973 9035 ft 179 kts 37°
2026-04-26 14:46 -39.97456 175.98956 9040 ft 178 kts 37°
2026-04-26 14:46 -39.96479 175.99946 9041 ft 179 kts 36°
2026-04-26 14:46 -39.95493 176.00939 9040 ft 180 kts 37°
2026-04-26 14:46 -39.94515 176.01934 9037 ft 178 kts 37°
2026-04-26 14:47 -39.93538 176.02919 9039 ft 178 kts 37°
2026-04-26 14:47 -39.92554 176.03913 9039 ft 177 kts 37°
2026-04-26 14:47 -39.91583 176.04899 9033 ft 177 kts 37°
2026-04-26 14:47 -39.90616 176.05868 9034 ft 177 kts 36°
2026-04-26 14:48 -39.89655 176.06843 9038 ft 176 kts 37°
2026-04-26 14:48 -39.88673 176.07825 9039 ft 176 kts 36°
2026-04-26 14:48 -39.87701 176.08808 9047 ft 179 kts 37°
2026-04-26 14:48 -39.86717 176.09774 9037 ft 177 kts 37°
2026-04-26 14:49 -39.85740 176.10776 9039 ft 177 kts 37°
2026-04-26 14:49 -39.84762 176.11769 9023 ft 183 kts 37°
2026-04-26 14:49 -39.83777 176.12794 9046 ft 182 kts 42°
2026-04-26 14:49 -39.83039 176.14125 9040 ft 184 kts 59°
2026-04-26 14:50 -39.82333 176.15525 9031 ft 182 kts 55°
2026-04-26 14:50 -39.81627 176.16876 9031 ft 180 kts 56°
2026-04-26 14:50 -39.80937 176.18220 9023 ft 178 kts 57°
2026-04-26 14:50 -39.80257 176.19545 9029 ft 178 kts 56°
2026-04-26 14:51 -39.79559 176.20889 9033 ft 179 kts 57°
2026-04-26 14:51 -39.78881 176.22242 9030 ft 180 kts 58°
2026-04-26 14:51 -39.78195 176.23590 9030 ft 178 kts 56°
2026-04-26 14:51 -39.77504 176.24914 9031 ft 177 kts 56°
2026-04-26 14:52 -39.76806 176.26264 9029 ft 178 kts 57°
2026-04-26 14:52 -39.76122 176.27604 9032 ft 179 kts 56°
2026-04-26 14:52 -39.75437 176.28947 9030 ft 180 kts 57°
2026-04-26 14:52 -39.74745 176.30287 9028 ft 179 kts 56°
2026-04-26 14:53 -39.74045 176.31643 9029 ft 178 kts 56°
2026-04-26 14:53 -39.73420 176.33008 9028 ft 176 kts 69°
2026-04-26 14:53 -39.73004 176.34487 9022 ft 175 kts 71°
2026-04-26 14:53 -39.72567 176.35956 8926 ft 179 kts 70°
2026-04-26 14:54 -39.72106 176.37508 8727 ft 185 kts 70°
2026-04-26 14:54 -39.71651 176.39050 8529 ft 183 kts 70°
2026-04-26 14:54 -39.71197 176.40579 8335 ft 182 kts 70°
2026-04-26 14:54 -39.70744 176.42112 8131 ft 181 kts 70°
2026-04-26 14:55 -39.70286 176.43640 7923 ft 179 kts 69°
2026-04-26 14:55 -39.70136 176.44136 7861 ft 178 kts 70°
2026-04-26 14:55 -39.69877 176.45022 7748 ft 175 kts 71°
2026-04-26 14:56 -39.69448 176.46490 7540 ft 170 kts 70°
2026-04-26 14:56 -39.69033 176.47888 7336 ft 166 kts 71°
2026-04-26 14:56 -39.68623 176.49272 7142 ft 164 kts 70°
2026-04-26 14:56 -39.68211 176.50646 6948 ft 163 kts 71°
2026-04-26 14:57 -39.67811 176.52000 6743 ft 160 kts 70°
2026-04-26 14:57 -39.67414 176.53327 6549 ft 156 kts 71°
2026-04-26 14:57 -39.67032 176.54615 6337 ft 151 kts 70°
2026-04-26 14:57 -39.66658 176.55875 6127 ft 149 kts 71°
2026-04-26 14:58 -39.66287 176.57119 5922 ft 147 kts 71°
2026-04-26 14:58 -39.65916 176.58370 5714 ft 147 kts 70°
2026-04-26 14:58 -39.65550 176.59598 5505 ft 146 kts 70°
2026-04-26 14:58 -39.65184 176.60824 5304 ft 146 kts 70°
2026-04-26 14:59 -39.64819 176.62045 5109 ft 146 kts 71°
2026-04-26 14:59 -39.64454 176.63279 4904 ft 147 kts 70°
2026-04-26 14:59 -39.64081 176.64517 4698 ft 146 kts 70°
2026-04-26 14:59 -39.63837 176.65329 4564 ft 145 kts 70°
2026-04-26 15:00 -39.63360 176.66935 4287 ft 144 kts 70°
2026-04-26 15:00 -39.62994 176.68164 4079 ft 145 kts 70°
2026-04-26 15:00 -39.62630 176.69382 3884 ft 147 kts 70°
2026-04-26 15:00 -39.62258 176.70624 3701 ft 148 kts 70°
2026-04-26 15:01 -39.61887 176.71860 3549 ft 147 kts 69°
2026-04-26 15:01 -39.61517 176.73093 3396 ft 145 kts 69°
2026-04-26 15:01 -39.61142 176.74323 3240 ft 146 kts 69°
2026-04-26 15:01 -39.60782 176.75545 3092 ft 146 kts 69°
2026-04-26 15:02 -39.60489 176.76799 2931 ft 147 kts 87°
2026-04-26 15:02 -39.60581 176.78114 2787 ft 145 kts 97°
2026-04-26 15:02 -39.60665 176.79395 2632 ft 139 kts 97°
2026-04-26 15:02 -39.60738 176.80632 2458 ft 138 kts 96°
2026-04-26 15:03 -39.60820 176.81846 2321 ft 136 kts 97°
2026-04-26 15:03 -39.60907 176.83073 2145 ft 139 kts 95°
2026-04-26 15:03 -39.60670 176.84271 2013 ft 140 kts 59°
2026-04-26 15:03 -39.59973 176.85116 1948 ft 138 kts 27°
2026-04-26 15:04 -39.59042 176.85389 1862 ft 139 kts
2026-04-26 15:04 -39.58075 176.85479 1746 ft 135 kts
2026-04-26 15:04 -39.57184 176.85586 1633 ft 128 kts
2026-04-26 15:04 -39.56303 176.85682 1508 ft 127 kts
2026-04-26 15:05 -39.55411 176.85778 1412 ft 131 kts
2026-04-26 15:05 -39.55099 176.85810 1385 ft 132 kts
2026-04-26 15:05 -39.53621 176.85981 1232 ft 126 kts
2026-04-26 15:05 -39.52738 176.86071 1063 ft 128 kts
2026-04-26 15:06 -39.51866 176.86171 880 ft 124 kts
2026-04-26 15:06 -39.51030 176.86263 724 ft 114 kts
2026-04-26 15:06 -39.50296 176.86343 570 ft 97 kts
2026-04-26 15:06 -39.49668 176.86422 432 ft 84 kts
2026-04-26 15:07 -39.48671 176.86566 230 ft 69 kts 356°
2026-04-26 15:07 -39.48183 176.86593 162 ft 72 kts 357°
2026-04-26 15:07 -39.47674 176.86642 68 ft 76 kts 359°
2026-04-26 15:08 -39.47165 176.86700 33 ft 69 kts
2026-04-26 15:08 -39.46740 176.86744 30 ft 43 kts
2026-04-26 15:08 -39.46651 176.86756 30 ft 0 kts 57°
2026-04-26 15:08 -39.46659 176.86795 30 ft 9 kts 97°
2026-04-26 15:09 -39.46664 176.86873 30 ft 10 kts 94°
2026-04-26 15:09 -39.46672 176.86987 29 ft 11 kts 95°
2026-04-26 15:09 -39.46677 176.87047 30 ft 4 kts 94°
2026-04-26 15:09 -39.46663 176.87084 28 ft 5 kts 77°
2026-04-26 15:10 -39.46675 176.87110 28 ft 4 kts 145°
2026-04-26 15:10 -39.46693 176.87131 28 ft 3 kts 70°
2026-04-26 15:10 -39.46685 176.87138 28 ft 0 kts 23°